Total_Precipitation_Accumulation
0.00 0.00 0.00 0.00 0.01 0.02 0.05 0.03 0.01 0.01 0.01 0.03 0.04 0.05 0.11 0.15 0.11 0.09 0.10 0.10 0.09 0.12
0.00 0.00 0.00 0.00 0.00 0.00 0.01 0.01 0.00 0.00 0.00 0.01 0.01 0.02 0.04 0.05 0.06 0.07 0.08 0.09 0.11 0.12
0.00 0.00 0.00 0.00 0.00 0.00 0.00 0.00 0.01 0.00 0.00 0.00 0.00 0.00 0.01 0.01 0.03 0.06 0.07 0.09 0.08 0.09
0.00 0.00 0.00 0.00 0.00 0.00 0.00 0.00 0.00 0.00 0.00 0.00 0.00 0.01 0.01 0.02 0.03 0.10 0.16 0.16 0.17 0.18
0.00 0.00 0.00 0.00 0.00 0.00 0.00 0.00 0.00 0.00 0.01 0.01 0.05 0.16 0.27 0.26 0.30 0.45 0.49 0.44 0.47 0.45
0.00 0.00 0.00 0.00 0.00 0.00 0.00 0.00 0.01 0.02 0.05 0.06 0.13 0.17 0.22 0.24 0.24 0.22 0.20 0.19 0.23 0.22
0.00 0.00 0.00 0.00 0.00 0.00 0.00 0.00 0.01 0.01 0.05 0.07 0.02 0.01 0.01 0.01 0.02 0.04 0.09 0.14 0.17 0.19
0.00 0.00 0.00 0.00 0.01 0.02 0.02 0.03 0.04 0.05 0.06 0.07 0.05 0.04 0.03 0.03 0.06 0.08 0.11 0.16 0.24 0.29
0.00 0.00 0.00 0.00 0.01 0.01 0.02 0.03 0.03 0.04 0.05 0.05 0.05 0.07 0.06 0.07 0.07 0.11 0.14 0.18 0.19 0.22
0.00 0.00 0.00 0.01 0.01 0.01 0.01 0.01 0.02 0.02 0.02 0.05 0.08 0.21 0.11 0.16 0.09 0.11 0.21 0.29 0.36 0.42
0.00 0.00 0.01 0.01 0.03 0.03 0.04 0.04 0.04 0.06 0.11 0.13 0.17 0.20 0.11 0.13 0.06 0.09 0.21 0.25 0.23 0.23
0.01 0.01 0.04 0.06 0.07 0.06 0.07 0.10 0.10 0.11 0.11 0.10 0.11 0.18 0.09 0.06 0.01 0.04 0.09 0.08 0.09 0.11
0.02 0.02 0.03 0.03 0.04 0.05 0.07 0.08 0.08 0.11 0.09 0.11 0.06 0.13 0.08 0.07 0.02 0.05 0.06 0.06 0.09 0.17
0.02 0.02 0.02 0.03 0.05 0.06 0.07 0.06 0.06 0.05 0.03 0.03 0.04 0.08 0.09 0.06 0.03 0.05 0.06 0.08 0.09 0.10